Location: Newark
(43.0000°N, 1.6781°W)
Time: 01:04:40
(UTC+00:00)

Vanguard 1 Rocket - Pass Details

Date: 28 April 2021
Orbit: 652 x 4224 km, 34.3° (Epoch: 06 May)

Event Time Altitude Azimuth Distance (km) Brightness Sun altitude
Rises 12:41:59 0° 253° (WSW) 5,155 11.5 60.2°
Reaches altitude 10° 12:46:18 10° 247° (WSW) 3,604 10.9 59.9°
Maximum altitude 12:53:45 38° 183° (S) 1,430 9.9 59.4°
Drops below altitude 10° 12:58:28 10° 114° (ESE) 2,273 9.6 59.0°
Sets 13:00:36 0° 106° (ESE) 3,061 10.1 58.9°
